[[{"header":{"parameterUnit":"m.s-1","parameterCategory":1,"la1":30.2991,"la2":30.254,"lo1":-89.0895,"lo2":-89.0444,"dy":0.0017,"dx":0.0017,"nx":28,"ny":28,"refTime":"2024-05-20T03:00:00:Z","depth":0,"parameterNumber":2,"parameterNumberName":"U-component_of_WINDS"},"data":[0,0,0,0,0,0,0,0,0,0,0,0,0,0,0,0,0,0,0,0,0,0,0,0,0,0,0,0,0,0,0,0,0,0,0,0,0,0,0,0,0,0,0,0,0,0,0,0,0,0,0,0,0,0,0,0,0,0,-1.9966,-1.9966,0,-1.996,-1.996,-1.996,-1.9917,-1.9916,-1.9915,-1.9914,-1.991,-1.991,-1.9911,0,0,0,0,0,0,0,0,0,0,0,0,0,-1.9941,-1.9942,-1.9966,-1.9966,-1.9966,-1.996,-1.996,-1.996,-1.9917,-1.9916,-1.9915,-1.9913,-1.9909,-1.991,-1.9911,0,0,0,0,0,0,0,0,0,0,0,0,0,-1.9946,-1.9942,-1.9966,-1.9943,-1.9941,-1.996,-1.996,-1.996,-1.9917,-1.9916,-1.9914,-1.9913,-1.9909,-1.991,-1.9912,-1.9952,0,0,-1.9916,-1.9916,0,0,0,0,0,0,0,0,-1.9946,-1.9947,-1.9947,-1.9945,-1.9943,-1.9938,-1.995,-1.9957,-1.9918,-1.9927,-1.9914,-1.9912,-1.992,-1.9921,-1.9923,-1.9952,-1.9952,-1.9916,-1.9917,-1.9917,-1.9918,0,0,0,0,0,0,0,-1.9945,-1.9947,-1.9964,-1.9947,-1.9944,-1.9935,-1.9933,-1.9951,-1.9933,-1.9926,-1.9923,-1.9922,-1.9919,-1.9922,-1.9923,-1.9952,-1.9916,-1.9917,-1.9918,-1.9918,-2.0014,-2.0016,0,0,0,0,0,0,-1.9948,-1.9947,-1.9964,-1.9963,-1.994,-1.9936,-1.9935,-1.9941,-1.9932,-1.9929,-1.9924,-1.992,-1.9921,-1.9921,-1.9922,-1.9969,-1.9917,-1.9918,-1.9919,-2.0013,-2.0015,-2.0017,0,0,0,0,0,0,-1.9947,-1.995,-1.9964,-1.9954,-1.9955,-1.9938,-1.9945,-1.9942,-1.9945,-1.9931,-1.9927,-1.993,-1.9919,-1.9921,-1.9945,-1.9969,-1.9919,-1.992,-2.001,-2.0013,-2.0016,-2.0064,0,0,0,0,0,0,-1.9947,-1.995,-1.9964,-1.9955,-1.9956,-1.9986,-1.9947,-1.9943,-1.9947,-1.9942,-1.9936,-1.9933,-1.9918,-1.9943,-1.9946,-1.997,-1.9921,-2.0008,-2.0012,-2.0015,-2.006,-2.0068,-2.0074,0,0,0,0,0,-1.9946,-1.9978,-1.9965,-1.9967,-1.9974,-1.9987,-1.9988,-1.997,-1.9949,-1.9964,-1.9955,-1.9933,-1.9966,-1.9946,-1.9949,-1.9973,-2.0007,-2.0011,-2.0015,-2.0057,-2.0066,-2.0074,0,0,0,0,0,0,-1.9991,-1.9976,-1.9962,-1.9991,-1.9991,-1.998,-1.9998,-1.998,-1.9986,-1.9981,-1.9959,-1.9958,-1.9986,-1.9982,-1.996,-2.0013,-1.9983,-1.9987,-2.0014,-2.0022,-2.003,-2.0029,-1.9922,0,0,0,0,0,-2.0004,-2.0016,-2.0003,-2.0031,-2.0031,-2.0015,-2.002,-2.0006,-2.0005,-2.0005,-1.9998,-1.9998,-2.0008,-2.0015,-2.0024,-2.006,-2.0058,-2.0078,-2.0085,-2.0091,-2.0095,-2.0115,-2.0123,-2.0029,-2.0029,-2.0029,0,0,-2.0031,-2.0025,-2.0034,-2.0039,-2.0037,-2.0051,-2.0015,-2.003,-2.0041,-2.0007,-2.0029,-2.0025,-2.0024,-2.0054,-2.0067,-2.0052,-2.0121,-2.0096,-2.0101,-2.0102,-2.012,-2.0128,-2.0136,-2.0032,-2.0032,-2.0031,0,0,-2.0088,-2.0085,-2.0107,-2.0106,-2.0104,-2.0093,-2.0099,-2.0091,-2.0086,-2.0109,-2.0084,-2.0097,-2.0115,-2.0115,-2.0117,-2.0177,-2.0157,-2.018,-2.0217,-2.0237,-2.0244,-2.0251,-2.0272,-2.028,-2.0185,-2.0185,-2.0185,0,-2.0123,-2.0141,-2.0121,-2.0139,-2.0142,-2.0113,-2.0136,-2.0137,-2.0137,-2.0141,-2.0124,-2.0147,-2.0144,-2.0174,-2.0189,-2.0192,-2.0198,-2.018,-2.0245,-2.0251,-2.0257,-2.0277,-2.0285,-2.0188,-2.0187,-2.0187,-2.0187,0,-2.0184,-2.0198,-2.0217,-2.0218,-2.0224,-2.0244,-2.0228,-2.0237,-2.0223,-2.0214,-2.0238,-2.0234,-2.0242,-2.0248,-2.0235,-2.0278,-2.0268,-2.0248,-2.0218,-2.0269,-2.0287,-2.0295,-2.0192,-2.0191,-2.019,-2.0189,0,0,-2.0267,-2.0258,-2.0265,-2.0266,-2.0262,-2.0272,-2.0293,-2.03,-2.0308,-2.031,-2.0326,-2.0343,-2.0325,-2.0328,-2.0315,-2.0332,-2.038,-2.031,-2.031,-2.0323,-2.0427,-2.0441,-2.0451,-2.0367,-2.0369,-2.037,-2.0427,0,-2.0322,-2.0354,-2.0337,-2.0372,-2.0385,-2.0358,-2.0376,-2.0376,-2.0369,-2.038,-2.0373,-2.0385,-2.036,-2.0362,-2.0378,-2.037,-2.04,-2.0366,-2.0383,-2.0384,-2.0383,-2.046,-2.0475,-2.0529,-2.0434,-2.0435,-2.0436,0,-2.0389,-2.0394,-2.043,-2.0425,-2.0429,-2.0445,-2.0451,-2.0462,-2.0462,-2.0456,-2.046,-2.0443,-2.0463,-2.0434,-2.0462,-2.0439,-2.0446,-2.0443,-2.0445,-2.0445,-2.0412,-2.0462,-2.0546,-2.0554,-2.0447,-2.0446,-2.0446,0,-2.0446,-2.0462,-2.0485,-2.0487,-2.0481,-2.0493,-2.0491,-2.049,-2.0496,-2.0502,-2.0505,-2.0514,-2.0518,-2.0526,-2.0512,-2.0492,-2.0542,-2.0511,-2.0538,-2.0539,-2.0549,-2.0548,-2.0635,-2.0554,-2.0554,-2.0554,-2.0554,0,-2.0508,-2.0531,-2.0511,-2.0526,-2.0551,-2.0533,-2.0559,-2.0555,-2.0554,-2.0568,-2.0546,-2.056,-2.0541,-2.0554,-2.0543,-2.0568,-2.0571,-2.0567,-2.0564,-2.0568,-2.0569,-2.0571,-2.0567,-2.0556,-2.0556,-2.0555,-2.0555,0,-2.0575,-2.0563,-2.0587,-2.058,-2.0579,-2.0598,-2.0592,-2.0606,-2.0599,-2.0617,-2.062,-2.0608,-2.0622,-2.0609,-2.0622,-2.0615,-2.0649,-2.064,-2.0648,-2.0646,-2.0673,-2.0671,-2.0764,-2.0775,-2.0688,-2.0689,-2.0689,0,-2.0615,-2.0633,-2.0628,-2.0635,-2.0635,-2.0648,-2.0654,-2.0637,-2.0644,-2.0647,-2.066,-2.0672,-2.068,-2.0703,-2.0696,-2.0707,-2.0698,-2.073,-2.07,-2.0704,-2.0699,-2.0698,-2.0699,-2.0736,-2.0737,-2.0738,-2.0739,0,-2.0688,-2.0681,-2.069,-2.0698,-2.0706,-2.0711,-2.0715,-2.0722,-2.0705,-2.0715,-2.0728,-2.0735,-2.0749,-2.0761,-2.0769,-2.0768,-2.0751,-2.0749,-2.0755,-2.076,-2.0764,-2.0762,-2.0665,-2.0746,-2.0746,-2.0745,-2.0745,-2.0744,-2.0743,-2.0757,-2.0756,-2.0768,-2.0769,-2.0773,-2.0786,-2.078,-2.0791,-2.08,-2.079,-2.0806,-2.0808,-2.0817,-2.0818,-2.0832,-2.0818,-2.0828,-2.083,-2.0833,-2.0837,-2.0762,-2.0833,-2.0833,-2.0833,-2.0833,-2.0832,0,-2.0814,-2.0813,-2.0823,-2.0829,-2.0839,-2.0822,-2.0825,-2.0834,-2.0849,-2.0851,-2.086,-2.0876,-2.0888,-2.0883,-2.0894,-2.0906,-2.0898,-2.0909,-2.0908,-2.0908,-2.0848,-2.0841,-2.0915,-2.0915,-2.0915,-2.0915,-2.0915,-2.0915,-2.0853,-2.0876,-2.087,-2.0894,-2.0892,-2.0908,-2.0912,-2.0916,-2.0918,-2.0936,-2.0946,-2.0942,-2.0942,-2.0953,-2.0964,-2.0962,-2.0967,-2.098,-2.0976,-2.092,-2.0912,-2.0904,-2.0897,-2.0982,-2.0982,-2.1034,-2.1035,-2.1035]},{"header":{"parameterUnit":"m.s-1","parameterCategory":1,"la1":30.2991,"la2":30.254,"lo1":-89.0895,"lo2":-89.0444,"dy":0.0017,"dx":0.0017,"nx":28,"ny":28,"refTime":"2024-05-20T03:00:00:Z","depth":0,"parameterNumber":3,"parameterNumberName":"V-component_of_WINDS"},"data":[0,0,0,0,0,0,0,0,0,0,0,0,0,0,0,0,0,0,0,0,0,0,0,0,0,0,0,0,0,0,0,0,0,0,0,0,0,0,0,0,0,0,0,0,0,0,0,0,0,0,0,0,0,0,0,0,0,0,2.8386,2.8386,0,2.8395,2.8395,2.8395,2.8405,2.8405,2.8405,2.8405,2.8414,2.8414,2.8414,0,0,0,0,0,0,0,0,0,0,0,0,0,2.8376,2.8376,2.8386,2.8386,2.8386,2.8395,2.8395,2.8395,2.8405,2.8405,2.8405,2.8405,2.8414,2.8414,2.8414,0,0,0,0,0,0,0,0,0,0,0,0,0,2.8382,2.8376,2.8386,2.8392,2.8393,2.8395,2.8395,2.8396,2.8405,2.8405,2.8405,2.8405,2.8414,2.8414,2.8414,2.8411,0,0,2.8415,2.8415,0,0,0,0,0,0,0,0,2.8382,2.8382,2.8391,2.8391,2.8392,2.8399,2.8395,2.8401,2.8405,2.84,2.8405,2.8405,2.8409,2.8409,2.8411,2.8412,2.8412,2.8415,2.8415,2.8415,2.8415,0,0,0,0,0,0,0,2.8381,2.8382,2.839,2.8391,2.8392,2.8394,2.8395,2.8396,2.8403,2.8401,2.8401,2.8402,2.8409,2.841,2.8411,2.8412,2.8415,2.8415,2.8415,2.8415,2.8412,2.8412,0,0,0,0,0,0,2.838,2.8382,2.8389,2.839,2.8387,2.8394,2.8395,2.8397,2.8403,2.8404,2.8402,2.8403,2.841,2.8411,2.8411,2.8409,2.8415,2.8415,2.8415,2.8412,2.8412,2.8412,0,0,0,0,0,0,2.838,2.8381,2.8389,2.8386,2.8387,2.8394,2.8395,2.8397,2.8398,2.8404,2.8406,2.8402,2.841,2.8411,2.8411,2.8409,2.8415,2.8415,2.8412,2.8412,2.8412,2.8403,0,0,0,0,0,0,2.8379,2.838,2.8379,2.8386,2.8387,2.8389,2.8395,2.8397,2.8398,2.8399,2.8405,2.8406,2.841,2.8411,2.8412,2.8409,2.8415,2.8413,2.8412,2.8412,2.8404,2.8403,2.8402,0,0,0,0,0,2.8379,2.8376,2.8379,2.838,2.8386,2.8389,2.839,2.8395,2.8398,2.8397,2.8401,2.8406,2.8409,2.8411,2.8412,2.841,2.8413,2.8412,2.8412,2.8404,2.8403,2.8402,0,0,0,0,0,0,2.8369,2.8377,2.8381,2.838,2.8384,2.839,2.8389,2.8394,2.8396,2.8397,2.8403,2.8404,2.8404,2.8407,2.8409,2.8407,2.8412,2.8411,2.8406,2.8404,2.8403,2.8403,2.8415,0,0,0,0,0,2.8367,2.8368,2.8375,2.8374,2.8376,2.8382,2.8384,2.8388,2.8392,2.8393,2.8397,2.8401,2.8403,2.8404,2.8406,2.8404,2.8406,2.8403,2.8402,2.8401,2.8401,2.8401,2.84,2.841,2.841,2.841,0,0,2.8362,2.8367,2.8367,2.8372,2.8376,2.8377,2.8384,2.8385,2.8386,2.8393,2.8394,2.8397,2.8401,2.8401,2.8401,2.8403,2.8398,2.8401,2.84,2.84,2.84,2.8399,2.8398,2.841,2.841,2.841,0,0,2.8354,2.8358,2.8358,2.8361,2.8366,2.8371,2.837,2.8377,2.8379,2.838,2.8386,2.8387,2.839,2.8393,2.8395,2.8389,2.8393,2.839,2.8385,2.8384,2.8384,2.8383,2.8381,2.838,2.8389,2.8389,2.8389,0,2.8348,2.835,2.8357,2.8358,2.836,2.8367,2.8367,2.837,2.8375,2.8376,2.8379,2.8384,2.8387,2.8387,2.8386,2.8387,2.8387,2.8389,2.8383,2.8383,2.8382,2.838,2.8379,2.8389,2.8389,2.8389,2.8389,0,2.8342,2.8344,2.8343,2.8348,2.835,2.8351,2.8357,2.8358,2.8362,2.8367,2.8368,2.8372,2.8375,2.8376,2.838,2.8377,2.8378,2.8382,2.8386,2.838,2.8379,2.8378,2.8388,2.8388,2.8389,2.8389,0,0,2.8328,2.8337,2.8337,2.834,2.8346,2.8348,2.8348,2.8352,2.8353,2.8357,2.8357,2.836,2.8364,2.8366,2.837,2.837,2.8365,2.8374,2.8374,2.8372,2.8363,2.836,2.8359,2.8368,2.8368,2.8368,2.8363,0,2.8321,2.8323,2.8329,2.8329,2.8331,2.8338,2.8339,2.8343,2.8347,2.8349,2.8353,2.8355,2.836,2.8361,2.8361,2.8366,2.8363,2.8366,2.8369,2.8369,2.8367,2.8358,2.8355,2.835,2.8362,2.8362,2.8362,0,2.8313,2.8317,2.8317,2.8324,2.8325,2.8326,2.833,2.8332,2.8336,2.8339,2.8342,2.8347,2.8348,2.8353,2.8354,2.8356,2.8358,2.836,2.836,2.836,2.8365,2.8358,2.8348,2.8347,2.8361,2.8361,2.8361,0,2.8303,2.8308,2.8309,2.8311,2.8319,2.8319,2.8323,2.8328,2.833,2.8333,2.8335,2.8338,2.834,2.8343,2.8348,2.8351,2.835,2.8354,2.8352,2.8352,2.8351,2.8351,2.8341,2.8352,2.8352,2.8352,2.8352,0,2.8295,2.8294,2.8304,2.8305,2.8305,2.8312,2.8312,2.8316,2.8321,2.8322,2.8329,2.833,2.8338,2.834,2.8344,2.8345,2.8346,2.8348,2.8349,2.8348,2.8347,2.8348,2.8349,2.8352,2.8352,2.8352,2.8352,0,2.8283,2.8289,2.8291,2.8299,2.8301,2.8301,2.8307,2.8308,2.8313,2.8314,2.8315,2.8322,2.8325,2.8331,2.8336,2.8339,2.8339,2.8341,2.8337,2.8338,2.8335,2.8335,2.8326,2.8325,2.8336,2.8336,2.8336,0,2.8277,2.8277,2.8285,2.8287,2.829,2.8293,2.8295,2.8302,2.8304,2.831,2.831,2.8314,2.8317,2.8321,2.8326,2.833,2.8332,2.8329,2.8333,2.8331,2.8332,2.8332,2.8332,2.8328,2.8327,2.8327,2.8327,0,2.8266,2.827,2.8273,2.8277,2.828,2.8284,2.8288,2.8289,2.8297,2.8299,2.8302,2.8304,2.8309,2.8313,2.8317,2.832,2.8325,2.8326,2.8326,2.8324,2.8322,2.8323,2.8335,2.8326,2.8326,2.8326,2.8326,2.8326,2.8257,2.8258,2.8264,2.8267,2.8271,2.8275,2.8276,2.8282,2.8284,2.8289,2.8293,2.8296,2.8301,2.8308,2.8311,2.8313,2.8316,2.8315,2.8315,2.8315,2.8314,2.8321,2.8314,2.8314,2.8314,2.8314,2.8314,0,2.8247,2.8251,2.8254,2.826,2.8263,2.8268,2.8273,2.8274,2.8277,2.8282,2.8285,2.8289,2.8292,2.8298,2.8302,2.8303,2.8305,2.8304,2.8304,2.8304,2.8312,2.8312,2.8302,2.8302,2.8302,2.8302,2.8302,2.8302,2.8242,2.8243,2.8248,2.8251,2.8256,2.8259,2.8261,2.8265,2.8268,2.8273,2.8276,2.828,2.8285,2.829,2.8293,2.8295,2.8296,2.8294,2.8296,2.8303,2.8304,2.8305,2.8305,2.8294,2.8294,2.8288,2.8288,2.8288]}]]